North Platte, NE

2:51 AM CDT on April 28, 2017 (GMT -0500)
North Platte Regional-Bird

Weather History for KLBF - November, 2012

Change the Weather History Date:

Friday, November 23, 2012

  Actual Average Record
Temperature  
Mean Temperature 28 °F 32 °F  
Max Temperature 43 °F 46 °F 72 °F (1988)
Min Temperature 13 °F 18 °F -6 °F (1950)
Degree Days  
Heating Degree Days 37 33  
Month to date heating degree days 581 638  
Since 1 July heating degree days 1282 1307  
Cooling Degree Days 0 0  
Month to date cooling degree days 0 0  
Year to date cooling degree days 1245 768  
Moisture  
Dew Point 14 °F    
Average Humidity 57    
Maximum Humidity 80    
Minimum Humidity 33    
Precipitation  
Precipitation 0.00 in 0.02 in 0.74 in (2001)
Month to date precipitation T 0.53  
Year to date precipitation 9.62 19.71  
Snow  
Snow 0.00 in 0.20 in 1.00 in (1950)
Month to date snowfall T 2.9  
Since 1 July snowfall 2.2 5.2  
Since 1 September snowfall 2.2 5.2  
Snow Depth 0.00 in    
Sea Level Pressure  
Sea Level Pressure 30.51 in    
Wind  
Wind Speed 7 mph (West)    
Max Wind Speed 13 mph    
Max Gust Speed 18 mph    
Visibility 10 miles    
Events      
T = Trace of Precipitation, MM = Missing Value Source: NWS Daily Summary

Daily Weather History Graph

Daily Weather History Graph

Search for Another Location

Airport or City:

Trip Planner

Search our weather history database for the weather conditions in past years. The results will help you decide how hot, cold, wet, or windy it might be!

Date:

Astronomy

Nov. 23, 2012 Rise Set
Actual Time 7:40 AM CST 5:17 PM CST
Civil Twilight 7:10 AM CST 5:47 PM CST
Nautical Twilight 6:36 AM CST 6:21 PM CST
Astronomical Twilight 6:03 AM CST 6:54 PM CST
Moon 2:35 PM CST (11/23) 2:59 AM CST (11/23)
Length of Visible Light 10h 37m
Length of Day
9h 37m
Waxing Gibbous, 80% of the Moon is Illuminated
Nov 23
Waxing Gibbous
Nov 28
Full
Dec 6
Last Quarter
Dec 13
New
Dec 19
First Quarter

Hourly Weather History & Observations

Time (CST) Temp. Windchill Dew Point Humidity Pressure Visibility Wind Dir Wind Speed Gust Speed Precip Events Conditions
12:53 AM 28.9 °F 21.9 °F 18.0 °F 64% 30.47 in 10.0 mi West 6.9 mph - N/A   Clear
1:53 AM 26.1 °F 16.2 °F 17.1 °F 69% 30.48 in 10.0 mi WNW 10.4 mph - N/A   Clear
2:53 AM 25.0 °F 15.5 °F 16.0 °F 69% 30.52 in 10.0 mi NW 9.2 mph - N/A   Clear
3:53 AM 23.0 °F 12.4 °F 14.0 °F 68% 30.54 in 10.0 mi NNW 10.4 mph - N/A   Clear
4:53 AM 17.1 °F 5.0 °F 10.9 °F 77% 30.56 in 10.0 mi WNW 10.4 mph - N/A   Clear
5:53 AM 17.1 °F 6.6 °F 10.0 °F 74% 30.60 in 10.0 mi WNW 8.1 mph - N/A   Clear
6:53 AM 18.0 °F 6.1 °F 10.9 °F 74% 30.61 in 10.0 mi WNW 10.4 mph - N/A   Clear
7:53 AM 14.0 °F 2.9 °F 8.1 °F 77% 30.63 in 10.0 mi WNW 8.1 mph - N/A   Clear
8:53 AM 21.0 °F 11.4 °F 12.0 °F 68% 30.63 in 10.0 mi WNW 8.1 mph - N/A   Clear
9:53 AM 24.1 °F 16.0 °F 10.9 °F 57% 30.65 in 10.0 mi NW 6.9 mph - N/A   Clear
10:53 AM 28.0 °F 21.7 °F 12.0 °F 51% 30.62 in 10.0 mi West 5.8 mph - N/A   Clear
11:53 AM 32.0 °F 26.4 °F 12.9 °F 45% 30.60 in 10.0 mi West 5.8 mph - N/A   Clear
12:53 PM 35.1 °F 29.3 °F 14.0 °F 42% 30.57 in 10.0 mi WSW 6.9 mph - N/A   Clear
1:53 PM 39.0 °F 35.7 °F 15.1 °F 38% 30.53 in 10.0 mi WSW 4.6 mph - N/A   Clear
2:53 PM 39.9 °F - 16.0 °F 38% 30.49 in 10.0 mi Calm Calm - N/A   Clear
3:53 PM 42.1 °F - 16.0 °F 35% 30.47 in 10.0 mi Calm Calm - N/A   Clear
4:53 PM 37.0 °F 33.3 °F 16.0 °F 42% 30.48 in 10.0 mi East 4.6 mph - N/A   Clear
5:53 PM 28.0 °F 20.8 °F 12.9 °F 53% 30.47 in 10.0 mi ESE 6.9 mph - N/A   Clear
6:53 PM 28.0 °F 20.0 °F 14.0 °F 56% 30.45 in 10.0 mi ESE 8.1 mph - N/A   Clear
7:53 PM 24.1 °F 17.0 °F 12.9 °F 62% 30.45 in 10.0 mi ESE 5.8 mph - N/A   Clear
8:53 PM 21.9 °F 12.5 °F 12.0 °F 66% 30.42 in 10.0 mi ESE 8.1 mph - N/A   Clear
9:53 PM 21.9 °F 14.5 °F 12.0 °F 66% 30.40 in 10.0 mi ESE 5.8 mph - N/A   Clear
10:53 PM 21.0 °F 12.4 °F 12.9 °F 71% 30.37 in 10.0 mi East 6.9 mph - N/A   Clear
11:53 PM 34.0 °F 26.6 °F 16.0 °F 48% 30.29 in 10.0 mi SSE 9.2 mph - N/A   Clear